Washington Executive (W32)
Clinton, MD
Field Elevation: 249
Lat: 38°44.89N  Long: 76°55.97W
CTAF/Unicom Freq: 122.8000
   
    
Weather Advisories
9/22/2014 20:11 Z
Altimeter 30.09" Hg
Wind 352° @ 7 KT
Gusts 15 KT
Temperature 20° C (68° F)
Dewpoint -14° C (7° F)
Relative Humidity 9%
Density Altitude 815 feet
Condensation Altitude 13,382 feet
  Wind and Runways
Indicated Runway = 5
History
 
 
More Info
All DigiWx sites map
Weather Radar
NOAA Forecast
 
Airport IQ 5010
(HMIEM) Shock Trauma Ctr
(26N) Ocean City
 
about DigiWx
 
FAA Disclaimer: The data displayed is for advisory purposes only and is not to be used for flight planning or operations. For official data, please call (not available) to hear the current automated AWOS voice message.
  METAR W32 222011Z AUTO 35007G15KT 20/M14 A3009